Location: Mannheim
(49.4880°N, 8.4650°E)
Time: 21:25:52
(UTC+02:00)

ISS - Pass Details

Date: 25 May 2023
Orbit: 412 x 419 km, 51.6° (Epoch: 28 May)

Event Time Altitude Azimuth Distance (km) Brightness Sun altitude
Rises 21:58:03 0° 288° (WNW) 2,356 1.4 -6.1°
Reaches altitude 10° 22:00:09 10° 288° (WNW) 1,493 0.3 -6.4°
Maximum altitude 22:03:30 89° 198° (SSW) 421 -3.8 -6.8°
Drops below altitude 10° 22:06:51 10° 110° (ESE) 1,493 -1.5 -7.2°
Enters shadow 22:07:17 - 110° (ESE) 1,668 -1.3 -7.2°
